Weather in Kamenny Most

Ukraine / Mykolaiv District     47°54′34″N   30°47′18″E
temp.,
°C
wind,
m/s
gust,
m/s
humid.,
%
clouds,
%
prec.,
mm/h
press.,
hPa
HPBL,
m
25 february, thu
thu2523:000ssw379799 0.0 1035228
02:00+1ssw34100100 0.0 1034143
05:00+1wsw23100100 0.0 103252
08:00+2w33100100 0.0 103345
11:00+2wsw23100100 0.0 103322
14:00+3w34100100 0.0 103235
17:00+3w34100100 0.0 103053
20:00+3wnw47100100 0.1 103099
26 february, fri
fri2623:00+3wnw33100100 0.0 103031
02:00+2w33100100 0.0 102935
05:00+2w23100100 0.0 102831
08:00+2wsw23100100 0.0 102740
11:00+3wsw35100100 0.0 1026100
14:00+4wsw46100100 0.0 1024154
17:00+4w34100100 0.0 102270
20:00+2wnw3498100 0.0 102256
27 february, sat
sat2723:00+3wnw349227 0.0 102037
02:00+2nw349622 0.0 102058
05:00+3nw489999 0.4 1018159
08:00+2wnw4995100 1.0 1018220
11:00+5nw61087100 0.0 1018967
14:00+5nw51082100 0.1 1018794
17:00+3wnw4108394 0.1 1017253
20:00+2nw5129497 0.1 1018545
28 february, sun
sun2823:00+2nw5119270 0.0 1019549
02:00+1nnw6119180 0.1 1020646
05:00+1nnw71189100 0.1 1021684
08:00+1nnw6108994 0.1 1023816
11:00+2nnw797693 0.1 1024997
14:00+2nnw697696 0.1 1025913
17:00+1nnw61081100 0.0 1026725
20:000nw4886100 0.1 1027438
1 march, mon
mon123:000nnw4889100 0.0 1028433
02:00−1nw3792100 0.1 1029268
05:00−2nnw369594 0.0 1029198
08:00−1n479070 0.0 1030379
11:00+3nne456674 0.1 10311018
14:00+3nne446487 0.1 10321053
17:00+2n3569100 0.0 1033201
20:00+1n2473100 0.0 103496